Location: Gleizolles
(44.4833°N, 6.7667°E)
Time: 15:17:06
(UTC+00:00)

Explorer 7 - Pass Details

Date: 21 June 2024
Orbit: 465 x 619 km, 50.3° (Epoch: 12 July)

Event Time Altitude Azimuth Distance (km) Brightness Sun altitude
Rises 13:40:47 0° 285° (WNW) 2,593 10.6 56.8°
Reaches altitude 10° 13:43:10 10° 295° (WNW) 1,685 9.7 56.5°
Maximum altitude 13:46:37 32° 1° (N) 839 8.0 55.9°
Drops below altitude 10° 13:49:58 10° 66° (ENE) 1,634 9.0 55.4°
Sets 13:52:15 0° 77° (ENE) 2,501 9.8 55.0°
